This demonstration page uses our WeatherBlox Daily Observations layout. Learn more.

Left ArrowRight Arrow

39.12711, -84.51439

Hourly Observations for June 26, 2021

Temp ( °F °C ) Dew Point ( °F °C ) Humidity (%) Winds ( mph kmh ) Pressure ( in mb ) Visibility ( mi km ) Precip ( " mm )
12:53 am 00:53 Clear 74 23.3 68 20 82 82 S 6 9 30.04 1017 10 16 N/A
1:53 am 01:53 Clear 72 22.2 67 19.4 84 84 SW 3 6 30.04 1017 10 16 N/A
2:53 am 02:53 Clear 71 21.7 67 19.4 87 87 N N/A 30.04 1017 10 16 N/A
3:53 am 03:53 Clear 70 21.1 67 19.4 90 90 N N/A 30.04 1017 10 16 N/A
4:53 am 04:53 Clear 70 21.1 67 19.4 90 90 SSW 7 11 30.04 1017 10 16 N/A
5:53 am 05:53 Clear 70 21.1 66 18.9 87 87 S 8 13 30.04 1017 10 16 N/A
6:53 am 06:53 Sunny 71 21.7 67 19.4 87 87 S 8 13 30.04 1017 10 16 N/A
7:53 am 07:53 Partly Cloudy 73 22.8 67 19.4 81 81 S 9 15 30.05 1018 10 16 N/A
8:53 am 08:53 Cloudy 74 23.3 67 19.4 79 79 S 10 17 30.06 1018 10 16 N/A
9:53 am 09:53 Mostly Cloudy 78 25.6 67 19.4 69 69 SSW 16 26 30.06 1018 10 16 N/A
10:53 am 10:53 Mostly Cloudy 80 26.7 67 19.4 64 64 SSW 20 31 30.06 1018 10 16 0.00 0.00
11:53 am 11:53 Mostly Cloudy 82 27.8 69 20.6 65 65 SSW 17 28 30.06 1018 10 16 N/A
12:53 pm 12:53 Partly Cloudy 83 28.3 68 20 61 61 SSW 18 30 30.06 1018 10 16 N/A
1:53 pm 13:53 Mostly Cloudy 83 28.3 68 20 61 61 SSW 18 30 30.05 1018 10 16 0.00 0.00
2:53 pm 14:53 Mostly Cloudy 85 29.4 70 21.1 61 61 SSW 15 24 30.04 1017 10 16 N/A
3:53 pm 15:53 Mostly Sunny 85 29.4 69 20.6 59 59 SSW 13 20 30.02 1017 10 16 N/A
5:53 pm 17:53 Sunny 85 29.4 67 19.4 55 55 S 20 31 30.00 1016 10 16 N/A
6:53 pm 18:53 Sunny 84 28.9 66 18.9 55 55 S 16 26 30.00 1016 10 16 N/A
7:53 pm 19:53 Sunny 82 27.8 66 18.9 58 58 S 14 22 30.00 1016 10 16 N/A
8:53 pm 20:53 Sunny 78 25.6 66 18.9 67 67 S 6 9 29.99 1016 10 16 N/A
9:53 pm 21:53 Clear 76 24.4 66 18.9 72 72 S 3 6 30.00 1016 10 16 N/A
10:53 pm 22:53 Clear 73 22.8 66 18.9 79 79 N N/A 30.04 1017 10 16 N/A
11:53 pm 23:53 Clear 70 21.1 67 19.4 90 90 SSW 3 6 30.03 1017 10 16 N/A

Powered by AerisWeather